Regional Weather Roundup
Issued by NWS

Home | Current Version | Previous Version | Text Only | Print | Product List | Glossary Off
Versions: 1 2 3 4 5 6 7 8 9 10 11 12 13 14 15 16 17 18 19 20 21 22 23 24 25 26 27 28 29 30 31 32 33 34 35 36 37 38 39 40 41 42 43 44 45 46 47 48 49 50

000
ASUS43 KOAX 021102
RWRNE

WEATHER ROUNDUP FOR NEBRASKA
NATIONAL WEATHER SERVICE OMAHA NE
600 AM CDT THU OCT 02 2014

NOTES: SATELLITE DATA IS BEING USED TO AUGMENT CLOUD COVER ABOVE
       12000 FEET.
       "FAIR" INDICATES FEW OR NO CLOUDS BELOW 12,000 FEET WITH NO
       SIGNIFICANT WEATHER AND/OR OBSTRUCTIONS TO VISIBILITY.

  * THESE STATIONS DO NOT REPORT WEATHER SUCH AS RAIN...SNOW OR FOG.

NEZ001>004-019>022-054>056-021200-
NEBRASKA PANHANDLE

CITY           SKY/WX    TMP DP  RH WIND       PRES   REMARKS
SCOTTSBLUFF    CLEAR     38  38 100 NW6       30.08R WCI  33
ALLIANCE       CLEAR     36  35  96 W8        30.05R WCI  30
CHADRON        CLEAR     41  39  93 SW7       30.05R
KIMBALL        PTCLDY    38  37  94 NW7       30.07S WCI  33
SIDNEY         PTCLDY    42  39  89 NW12      30.07R
$$

NEZ057>060-069>072-079>082-021200-
SOUTHWEST NEBRASKA

CITY           SKY/WX    TMP DP  RH WIND       PRES   REMARKS
NORTH PLATTE   CLOUDY    50  47  89 NW8       29.98R
IMPERIAL       MOCLDY    48  45  89 NW14      30.01R
LEXINGTON      LGT RAIN  52  50  93 N9        29.92S
MCCOOK         LGT RAIN  51  49  92 NW14      29.96S
OGALLALA       CLOUDY    47  46  95 NW8       30.03R
$$

NEZ005>010-023>029-035>040-094-021200-
NORTH CENTRAL NEBRASKA

CITY           SKY/WX    TMP DP  RH WIND       PRES   REMARKS
VALENTINE      CLOUDY    48  46  93 NW8       29.97S
AINSWORTH      CLOUDY    50  49  98 NW6       29.97R
BROKEN BOW     LGT RAIN  52  50  93 N9        29.93S
O`NEILL        LGT RAIN  52  52  99 NW8       29.95R
ORD            LGT RAIN  52  50  93 N9        29.91F
THEDFORD       CLOUDY    50  48  93 NW8       29.98S
$$

NEZ041-046>049-061>064-073>077-083>087-021200-
SOUTH CENTRAL NEBRASKA

CITY           SKY/WX    TMP DP  RH WIND       PRES   REMARKS
GRAND ISLAND   CLOUDY    54  50  86 N20G25    29.87R
AURORA         CLOUDY    54  51  92 N17G24    29.86R
HASTINGS       LGT RAIN  54  49  83 NW20G29   29.89R
HEBRON         PTCLDY    57  54  89 N10G17    29.79S
HOLDREGE       CLOUDY    52  49  91 N14G22    29.89R
KEARNEY *      CLOUDY    52  48  87 N21G28    29.88F
YORK           CLOUDY    55  54  94 N14G22    29.84R
$$

NEZ011>018-030>034-042>045-021200-
NORTHEAST NEBRASKA

CITY           SKY/WX    TMP DP  RH WIND       PRES   REMARKS
NORFOLK        CLOUDY    53  51  93 N15G25    29.84F
ALBION         CLOUDY    53  50  92 NW16      29.90R
BLAIR          LGT RAIN  65  63  95 CALM      29.79S VSB 1/4
COLUMBUS *     CLOUDY    54  50  87 N17G25    29.81F
FREMONT        CLOUDY    58  55  87 NW14G22   29.82F
TEKAMAH        LGT RAIN  63  60  90 W18       29.82R FOG
WAYNE          CLOUDY    54  52  93 N17G23    29.85F
$$

NEZ050>053-065>068-078-088>093-021200-
SOUTHEAST NEBRASKA

CITY           SKY/WX    TMP DP  RH WIND       PRES   REMARKS
LINCOLN        LGT RAIN  59  55  87 NW22G28   29.78F
OMAHA EPPLEY   FOG       64  63  96 N6        29.80R VSB 1/2
BEATRICE       MOCLDY    60  58  92 E10       29.75F
FALLS CITY     CLOUDY    65  63  93 E6        29.72F FOG
NEBRASKA CITY  FOG       64  64 100 NE7       29.77R VSB 1/2
PLATTSMOUTH    FOG       64  62  96 NW5       29.79R VSB 1/4
$$

NEZ044-045-051>053-067-021200-
OMAHA AREA

CITY           SKY/WX    TMP DP  RH WIND       PRES   REMARKS
OMAHA EPPLEY   FOG       64  63  96 N6        29.80R VSB 1/2
BLAIR          LGT RAIN  65  63  95 CALM      29.79S VSB 1/4
FREMONT        CLOUDY    58  55  87 NW14G22   29.82F
MILLARD        LGT RAIN  65  64  97 NW7       29.78F
OFFUTT AFB     FOG       65  65 100 NW10      29.79R VSB 3/4
PLATTSMOUTH    FOG       64  62  96 NW5       29.79R VSB 1/4
WAHOO          PTSUNNY   58  54  86 N14G24    29.80F
$$


USA.gov is the U.S. government's official web portal to all federal, state and local government web resources and services.